Regional Weather Roundup
Issued by NWS

Home | Current Version | Previous Version | Text Only | Print | Product List | Glossary Off
Versions: 1 2 3 4 5 6 7 8 9 10 11 12 13 14 15 16 17 18 19 20 21 22 23 24 25 26 27 28 29 30 31 32 33 34 35 36 37 38 39 40 41 42 43 44 45 46 47 48 49 50

000
ASUS45 KCYS 220210
RWRWY

WYOMING REGIONAL WEATHER ROUNDUP
NATIONAL WEATHER SERVICE CHEYENNE WY
800 PM MDT FRI JUL 21 2017

NOTE:  "FAIR" INDICATES FEW OR NO CLOUDS BELOW 12,000 FEET
WITH NO SIGNIFICANT WEATHER AND/OR OBSTRUCTIONS TO VISIBILITY.

WYZ001-220300-
YELLOWSTONE NATIONAL PARK

CITY           SKY/WX    TMP DP  RH WIND       PRES   REMARKS
LK YELLOWSTONE   N/A     68  33  27 CALM      30.31S
W YELLOWSTONE  NOT AVBL

$$
WYZ002>013-054>058-071-098>099-220300-
NORTHERN WYOMING

CITY           SKY/WX    TMP DP  RH WIND       PRES   REMARKS
JACKSON        CLEAR     77  27  15 VRB7      30.20S
CODY           FAIR      80  40  23 N13G20    30.07R
GREYBULL       FAIR      90  32  12 N8        29.94R
WORLAND        FAIR      84  42  22 N8        29.95R
SHERIDAN       FAIR      80  49  33 W5        30.00R
BUFFALO        FAIR      79  37  22 NW8       30.08R
GILLETTE       FAIR      82  36  19 N6        30.01R
HULETT         FAIR      81  32  17 N3        30.02S
NEWCASTLE      FAIR      82  36  18 N3        30.02R

$$
WYZ014>020-022>026-101>103-220300-
CENTRAL WYOMING

CITY           SKY/WX    TMP DP  RH WIND       PRES   REMARKS
BIG PINEY      FAIR      75  35  23 N13       30.24R
PINEDALE       FAIR      73  34  23 NW9       30.26R
DUBOIS         FAIR      73  18  12 NW15G25   30.23S
LANDER         FAIR      84  33  16 W10       30.07R
RIVERTON       FAIR      84  30  14 NW12      30.07R
CASPER         FAIR      84  38  19 CALM      30.06R
DOUGLAS        MOCLDY    80  51  36 S9        30.06R

$$
WYZ021-027>030-104>119-220300-
SOUTHERN WYOMING

CITY           SKY/WX    TMP DP  RH WIND       PRES   REMARKS
EVANSTON       FAIR      80  40  23 N14       30.23R
KEMMERER         N/A    N/A N/A N/A NW9       30.26S
FORT BRIDGER   CLOUDY    84  36  18 NW10G17   30.25R
ROCK SPRINGS   FAIR      78  47  33 SW7       30.20S
RAWLINS        FAIR      68  50  52 S17       30.23F
SARATOGA       FAIR      59  55  88 S24       30.29F
LARAMIE        LGT RAIN  56  53  90 NW14      30.37R
CHEYENNE       LGT RAIN  72  49  44 W21       30.25R
TORRINGTON     FAIR      82  50  32 W10G20    30.02R
PINE BLUFFS    FAIR      77  46  33 W7        30.12R

$$



USA.gov is the U.S. government's official web portal to all federal, state and local government web resources and services.